Regional Weather Roundup
Issued by NWS

Home | Current Version | Previous Version | Graphics & Text | Print | Product List | Glossary On
Versions: 1 2 3 4 5 6 7 8 9 10 11 12 13 14 15 16 17 18 19 20 21 22 23 24 25 26 27 28 29 30 31 32 33 34 35 36 37 38 39 40 41 42 43 44 45 46 47 48 49 50
000
ASUS43 KMKX 242121
RWRWI

WISCONSIN REGIONAL WEATHER ROUNDUP
NATIONAL WEATHER SERVICE MILWAUKEE/SULLIVAN WI
400 PM CDT FRI APR 24 2015

NOTE: "FAIR" INDICATES FEW OR NO CLOUDS BELOW 12,000 FEET WITH NO
SIGNIFICANT WEATHER AND/OR OBSTRUCTIONS TO VISIBILITY.

WIZ001-002-006>008-014>016-023>028-242200-
NORTHWEST WISCONSIN

CITY           SKY/WX    TMP DP  RH WIND       PRES   REMARKS
SUPERIOR ARPT  CLOUDY    36  32  85 NE12G18   29.96F WCI  28
ASHLAND        CLOUDY    43  30  60 SE7       29.99F
HAYWARD        CLOUDY    39  33  79 E12       29.92F WCI  32
SIREN          CLOUDY    50  23  34 E8        29.86F
CUMBERLAND     CLOUDY    50  23  34 E9G20     29.85F
RICE LAKE      CLOUDY    52  21  30 E12       29.87F
CHETEK         CLOUDY    52  24  33 E9        29.87F
LADYSMITH      CLOUDY    51  20  30 E10       29.90F
EAU CLAIRE     CLOUDY    54  30  40 S10       29.86F
MENOMONIE      CLOUDY    51  32  47 SE13      29.87F
NEW RICHMOND   CLOUDY    49  32  52 SE9G17    29.85F
OSCEOLA        CLOUDY    51  34  51 SE12G20   29.86F
$$

WIZ003>005-009-010-017-018-242200-
NORTH CENTRAL WISCONSIN

CITY           SKY/WX    TMP DP  RH WIND       PRES   REMARKS
MANITOWISH WTR CLOUDY    37  34  89 S6        29.97F WCI  32
ARBOR VITAE    CLOUDY    39  33  76 E5        29.96F
WOODRUFF       CLOUDY    39  33  76 E5        29.96F
RHINELANDER    CLOUDY    45  23  42 E7        29.96F
EAGLE RIVER    CLOUDY    45  19  35 SW5       29.95F
LAND O LAKES   CLOUDY    49  15  26 SE3       29.96F
PHILLIPS       CLOUDY    44  26  49 NE9       29.93F
TOMAHAWK       CLOUDY    50  16  26 E5        29.94F
MEDFORD        CLOUDY    53  22  29 SE9       29.90F
MERRILL        CLOUDY    55  19  24 E9        29.92F
$$

WIZ029-030-035-036-043>047-242200-
CENTRAL WISCONSIN

CITY           SKY/WX    TMP DP  RH WIND       PRES   REMARKS
WAUSAU         CLOUDY    56  18  22 SE15      29.90F
MOSINEE        PTSUNNY   55  19  24 SE9       29.92F
MARSHFIELD     CLOUDY    56  22  26 S12       29.89F
STEVENS POINT  CLOUDY    54  22  28 E13G18    29.91F
WAUPACA        PTSUNNY   59  19  21 SE8       29.95S
WAUTOMA        CLOUDY    58  16  19 S10       29.93F
WISC RAPIDS    CLOUDY    57  15  19 SE12      29.91F
CAMP DOUGLAS   CLOUDY    53  23  31 SE9       29.89F
$$

WIZ011>013-019>022-031-037>040-048>050-242200-
NORTHEAST WISCONSIN

CITY           SKY/WX    TMP DP  RH WIND       PRES   REMARKS
ANTIGO         CLOUDY    50  21  31 SE10      29.96F
SHAWANO        CLOUDY    53  26  35 E10G16    29.98F
OCONTO         CLOUDY    45  21  38 SE10      30.03S
STURGEON BAY   CLOUDY    41  21  45 SE9       30.06F
GREEN BAY      PTSUNNY   52  22  30 SE12      29.99F
MANITOWOC      SUNNY     45  19  35 E10       30.02F
APPLETON       PTSUNNY   54  21  28 E13       29.98F
CLINTONVILLE   MOSUNNY   55  19  24 E8        29.95F
OSHKOSH        PTSUNNY   53  25  33 E18       29.96F
$$

WIZ032>034-041-042-053>061-242200-
SOUTHWEST WISCONSIN

CITY           SKY/WX    TMP DP  RH WIND       PRES   REMARKS
LA CROSSE      LGT RAIN  50  35  56 SE17      29.88F
SPARTA         CLOUDY    52  24  33 E13       29.89F
VIROQUA        CLOUDY    42  39  91 SE9       29.89S
BOSCOBEL       LGT RAIN  44  39  82 E9G22     29.91F
PRAIRIE DU CHI CLOUDY    43  41  93 E7        29.87F
PLATTEVILLE    CLOUDY    46  39  77 E13       29.89R
$$

WIZ056-057-062-063-064-067-068-242200-
SOUTH CENTRAL WISCONSIN

CITY           SKY/WX    TMP DP  RH WIND       PRES   REMARKS
REEDSBURG      LGT RAIN  46  36  69 SE7       29.92F
BARABOO/DELLS  LGT RAIN  48  32  52 S15       29.93S
LONE ROCK      LGT RAIN  43  40  89 E10       29.91F FOG
MINERAL POINT  CLOUDY    45  37  76 E12       29.89F
MADISON        LGT RAIN  45  37  73 S8        29.96S
MIDDLETON      CLOUDY    44  38  79 SE5       29.95F
WATERTOWN      LGT RAIN  51  27  39 S8G17     29.95S
MONROE         CLOUDY    45  36  70 NE9       29.92F
JANESVILLE     LGT RAIN  50  34  53 NE6       29.95F
$$

WIZ051-052-058>065-066-070>072-242200-
SOUTHEAST WISCONSIN

CITY           SKY/WX    TMP DP  RH WIND       PRES   REMARKS
MILWAUKEE      CLOUDY    45  25  45 SE9       29.99F
WAUKESHA       CLOUDY    46  19  34 E9        29.98F
MILWAUKEE/TIMM CLOUDY    46  16  29 E9        29.99F
RACINE         CLOUDY    43  32  65 E6        30.00F
BURLINGTON     RAIN      44  32  61 E6        29.97S
KENOSHA        CLOUDY    47  26  44 E9        29.98F
FOND DU LAC    PTSUNNY   53  25  33 SE13      29.96F
SHEBOYGAN      MOSUNNY   48  18  30 E12       30.01F
WEST BEND      CLOUDY    46  21  36 E9        29.98F
JUNEAU         CLOUDY    52  29  41 E10       29.95F
$$

LSZ147-162-242200-
LAKE SUPERIOR

STATION/POSITION TIME  TEMP    WIND        PRES    WAVE
                       AIR SEA DIR/SP/G            HT/PER
                 (UTC) (F)     (DEG/KT/KT) (MB)    (FT/S)
W MID LAKE BUOY  2050   34 35   60/ 17/ 21 1017.3F   2/ 3
DEVILS ISLAND    2100   36      90/ 11/ 12 1016.7F
PORT WING        2040   39      50/  4/  5 1015.2F
SAXON HARBOR     2000   40      CALM  /  4 1015.2F
$$

LMZ867-665-643>646-242200-
LAKE MICHIGAN

STATION/POSITION TIME  TEMP    WIND        PRES    WAVE
                       AIR SEA DIR/SP/G            HT/PER
                 (UTC) (F)     (DEG/KT/KT) (MB)    (FT/S)
CHAMBERS ISLAND  2000   41      50/  8/ 12 1017.9S
NORTHPORT PIER   2000   36     140/  9/ 10 1018.3F
KEWAUNEE LAKESHO 2000   39     110/  2/  7 1017.0F
SHEBOYGAN LAKESH 2100   38      50/  5/  6 1017.3F
PORT WASHINGTON  2000   40      70/  5/  7 1017.3F
MILWAUKEE LAKESH 2100   40      80/  2/  3   N/A
KENOSHA   LAKESH 2100   42      90/  2/  4 1015.2F
$$

TC  - TEMPERATURE IN CELSIUS
VSB - VISIBILITY IN STATUTE MILES
WCI - WIND CHILL INDEX
HX  - HEAT INDEX



USA.gov is the U.S. government's official web portal to all federal, state and local government web resources and services.